User: anonymous   Login
Location: Unspecified
(0.0000°N, 0.0000°E)
Time: 23:16:09
(UTC+00:00)
Language:

USA 32 - Orbit

View from above orbital plane
View from above orbital plane
View from above satellite
View from above satellite

Ground track
Ground track

The orbit data is extracted from the following two-line orbital elements,

1 19460U 88078A   17332.20562769 0.00000050  00000-0  18139-4 0    08
2 19460  84.9862 126.8209 0006000 350.3571   9.6427 14.33431862    00
Epoch (UTC): 28 November 2017 04:56:06
Eccentricity: 0.0006000
inclination: 84.9862°
perigee height: 776 km
apogee height: 784 km
right ascension of ascending node: 126.8209°
argument of perigee: 350.3571°
revolutions per day: 14.33431862
mean anomaly at epoch: 9.6427°
orbit number at epoch: 0

The dashed part of the orbit path shows where the satellite is in the earth's shadow,  

DLR